| time (UTC) | temp F | wind direction | speed knots | gust knots | rain 1hr in | rain 24hr in | rain mn in | humidity % | barometer mb |
| 20260831163356 | 81 | 293 | 2.6 | 4.3 | 0.00 | 0.00 | 0.00 | 73 | 1018.7 |
| 20260831162315 | 81 | 286 | 1.7 | 3.5 | 0.00 | 0.00 | 0.00 | 73 | 1018.8 |
| 20260831161317 | 80 | 289 | 1.7 | 3.5 | 0.00 | 0.00 | 0.00 | 74 | 1018.8 |
| 20260831160359 | 80 | 268 | 0.0 | 2.6 | 0.00 | 0.00 | 0.00 | 74 | 1018.5 |
| 20260831155317 | 80 | 292 | 1.7 | 3.5 | 0.00 | 0.00 | 0.00 | 74 | 1018.7 |
| 20260831154335 | 81 | 290 | 1.7 | 3.5 | 0.00 | 0.00 | 0.00 | 73 | 1018.6 |
| 20260831153335 | 81 | 295 | 1.7 | 2.6 | 0.00 | 0.00 | 0.00 | 73 | 1018.8 |
| 20260831152337 | 81 | 339 | 0.9 | 6.1 | 0.00 | 0.00 | 0.00 | 73 | 1018.9 |
| 20260831151319 | 82 | 290 | 1.7 | 3.5 | 0.00 | 0.00 | 0.00 | 73 | 1019.0 |
| 20260831150339 | 81 | 259 | 0.9 | 3.5 | 0.00 | 0.00 | 0.00 | 77 | 1019.0 |
| 20260831145313 | 79 | 271 | 1.7 | 3.5 | 0.00 | 0.00 | 0.00 | 80 | 1019.0 |
| 20260831144314 | 78 | 288 | 1.7 | 3.5 | 0.00 | 0.00 | 0.00 | 79 | 1019.1 |
| 20260831143330 | 78 | 315 | 2.6 | 4.3 | 0.00 | 0.00 | 0.00 | 82 | 1019.0 |
| 20260831142336 | 77 | 339 | 1.7 | 2.6 | 0.00 | 0.00 | 0.00 | 85 | 1019.0 |
| 20260831141321 | 77 | 286 | 0.9 | 2.6 | 0.00 | 0.00 | 0.00 | 85 | 1019.0 |
| 20260831140334 | 77 | 286 | 1.7 | 2.6 | 0.00 | 0.00 | 0.00 | 85 | 1019.1 |
| 20260831135348 | 76 | 192 | 0.0 | 2.6 | 0.00 | 0.00 | 0.00 | 90 | 1019.1 |
| 20260831134314 | 75 | 214 | 0.9 | 2.6 | 0.00 | 0.00 | 0.00 | 91 | 1019.1 |
| 20260831133314 | 74 | 260 | 0.0 | 1.7 | 0.00 | 0.00 | 0.00 | 92 | 1019.1 |
| 20260831132316 | 74 | 260 | 0.9 | 2.6 | 0.00 | 0.00 | 0.00 | 92 | 1019.2 |
| 20260831131316 | 73 | 203 | 0.9 | 2.6 | 0.00 | 0.00 | 0.00 | 93 | 1019.2 |
| 20260831130331 | 73 | 310 | 2.6 | 4.3 | 0.00 | 0.00 | 0.00 | 94 | 1019.2 |
| 20260831125329 | 73 | 232 | 0.9 | 2.6 | 0.00 | 0.00 | 0.00 | 94 | 1018.9 |
| 20260831124315 | 72 | 313 | 0.0 | 1.7 | 0.00 | 0.00 | 0.00 | 95 | 1018.8 |
| 20260831123332 | 72 | 313 | 0.9 | 1.7 | 0.00 | 0.00 | 0.00 | 95 | 1019.0 |
| 20260831122314 | 72 | 313 | 0.9 | 2.6 | 0.00 | 0.00 | 0.00 | 95 | 1019.0 |
| 20260831121334 | 71 | 58 | 0.0 | 0.9 | 0.00 | 0.00 | 0.00 | 95 | 1019.0 |
| 20260831120319 | 71 | 58 | 0.0 | 0.9 | 0.00 | 0.00 | 0.00 | 95 | 1018.9 |
| 20260831115330 | 71 | 58 | 0.0 | 0.0 | 0.00 | 0.00 | 0.00 | 95 | 1018.9 |
| 20260831114337 | 71 | 58 | 0.0 | 0.9 | 0.00 | 0.00 | 0.00 | 95 | 1018.9 |
| 20260831113328 | 70 | 58 | 0.0 | 1.7 | 0.00 | 0.00 | 0.00 | 95 | 1018.7 |
| 20260831112336 | 70 | 58 | 0.9 | 1.7 | 0.00 | 0.00 | 0.00 | 95 | 1018.6 |
| 20260831111356 | 70 | 71 | 0.0 | 1.7 | 0.00 | 0.00 | 0.00 | 94 | 1018.8 |
| 20260831110336 | 70 | 272 | 0.9 | 1.7 | 0.00 | 0.00 | 0.00 | 95 | 1018.7 |
| 20260831105337 | 70 | 272 | 0.0 | 0.0 | 0.00 | 0.00 | 0.00 | 94 | 1018.4 |
| 20260831104316 | 70 | 272 | 0.0 | 0.9 | 0.00 | 0.00 | 0.00 | 94 | 1018.3 |
| 20260831103314 | 70 | 272 | 0.0 | 0.9 | 0.00 | 0.00 | 0.00 | 94 | 1018.1 |
| 20260831102327 | 70 | 272 | 0.0 | 1.7 | 0.00 | 0.00 | 0.00 | 94 | 1018.1 |
| 20260831101335 | 70 | 272 | 0.0 | 1.7 | 0.00 | 0.00 | 0.00 | 94 | 1018.1 |
| 20260831100311 | 70 | 272 | 0.0 | 1.7 | 0.00 | 0.00 | 0.00 | 94 | 1018.0 |
| 20260831095337 | 71 | 272 | 0.9 | 1.7 | 0.00 | 0.00 | 0.00 | 94 | 1017.9 |
| 20260831094314 | 70 | 139 | 0.9 | 1.7 | 0.00 | 0.00 | 0.00 | 94 | 1017.8 |
| 20260831093335 | 70 | 139 | 0.9 | 2.6 | 0.00 | 0.00 | 0.00 | 94 | 1017.8 |
| 20260831092332 | 70 | 154 | 1.7 | 2.6 | 0.00 | 0.00 | 0.00 | 94 | 1017.8 |
| 20260831091337 | 70 | 188 | 0.9 | 5.2 | 0.00 | 0.00 | 0.00 | 94 | 1017.6 |
| 20260831090317 | 70 | 157 | 2.6 | 4.3 | 0.00 | 0.00 | 0.00 | 94 | 1017.5 |
| 20260831085315 | 70 | 180 | 0.9 | 3.5 | 0.00 | 0.00 | 0.00 | 94 | 1017.5 |
| 20260831084321 | 70 | 360 | 0.9 | 1.7 | 0.00 | 0.00 | 0.00 | 94 | 1017.4 |
| 20260831083313 | 70 | 360 | 0.0 | 0.9 | 0.00 | 0.00 | 0.00 | 93 | 1017.3 |
| 20260831082314 | 70 | 360 | 0.0 | 1.7 | 0.00 | 0.00 | 0.00 | 93 | 1017.3 |
| 20260831081323 | 70 | 360 | 0.0 | 0.9 | 0.00 | 0.00 | 0.00 | 93 | 1017.4 |
| 20260831080323 | 70 | 360 | 0.0 | 0.9 | 0.00 | 0.00 | 0.00 | 93 | 1017.2 |
| 20260831075354 | 70 | 360 | 0.9 | 2.6 | 0.00 | 0.00 | 0.00 | 93 | 1017.1 |
| 20260831074313 | 70 | 86 | 0.9 | 1.7 | 0.00 | 0.00 | 0.00 | 93 | 1017.0 |
| 20260831073317 | 70 | 86 | 0.0 | 0.0 | 0.00 | 0.00 | 0.00 | 92 | 1017.0 |
| 20260831072342 | 71 | 86 | 0.0 | 1.7 | 0.00 | 0.00 | 0.00 | 92 | 1017.1 |
| 20260831071338 | 71 | 86 | 0.9 | 1.7 | 0.00 | 0.00 | 0.00 | 92 | 1017.1 |
| 20260831070339 | 71 | 86 | 0.9 | 1.7 | 0.00 | 0.00 | 0.00 | 92 | 1017.1 |
| 20260831065339 | 71 | 86 | 0.0 | 1.7 | 0.00 | 0.00 | 0.00 | 92 | 1017.4 |
| 20260831064321 | 71 | 86 | 0.9 | 1.7 | 0.00 | 0.00 | 0.00 | 92 | 1017.4 |
| 20260831063318 | 71 | 86 | 0.0 | 0.9 | 0.00 | 0.00 | 0.00 | 92 | 1017.5 |
| 20260831062318 | 72 | 86 | 0.0 | 2.6 | 0.00 | 0.00 | 0.00 | 92 | 1017.7 |
| 20260831061331 | 71 | 86 | 1.7 | 2.6 | 0.00 | 0.00 | 0.00 | 92 | 1017.7 |
| 20260831060358 | 72 | 86 | 0.0 | 1.7 | 0.00 | 0.00 | 0.00 | 92 | 1017.7 |
| 20260831055353 | 72 | 31 | 0.9 | 3.5 | 0.00 | 0.00 | 0.00 | 91 | 1017.9 |
| 20260831054330 | 72 | 176 | 1.7 | 2.6 | 0.00 | 0.00 | 0.00 | 91 | 1017.6 |
| 20260831053314 | 72 | 176 | 0.0 | 0.9 | 0.00 | 0.00 | 0.00 | 91 | 1017.5 |
| 20260831052332 | 72 | 176 | 0.0 | 0.0 | 0.00 | 0.00 | 0.00 | 91 | 1017.5 |
| 20260831051313 | 73 | 176 | 0.0 | 0.9 | 0.00 | 0.00 | 0.00 | 91 | 1017.5 |
| 20260831050336 | 73 | 176 | 0.0 | 1.7 | 0.00 | 0.00 | 0.00 | 91 | 1017.5 |
| 20260831045338 | 73 | 176 | 0.0 | 0.9 | 0.00 | 0.00 | 0.00 | 90 | 1017.5 |
| 20260831044358 | 73 | 176 | 0.0 | 0.9 | 0.00 | 0.00 | 0.00 | 90 | 1017.7 |
| 20260831043315 | 73 | 176 | 0.0 | 0.9 | 0.00 | 0.00 | 0.00 | 90 | 1017.8 |
| 20260831042313 | 73 | 176 | 0.0 | 0.9 | 0.00 | 0.00 | 0.00 | 90 | 1017.9 |
| 20260831041359 | 73 | 176 | 0.0 | 0.9 | 0.00 | 0.00 | 0.00 | 90 | 1017.9 |
| 20260831040333 | 73 | 176 | 0.0 | 0.9 | 0.00 | 0.00 | 0.00 | 89 | 1017.9 |
| 20260831035314 | 73 | 176 | 0.9 | 1.7 | 0.00 | 0.00 | 0.00 | 89 | 1017.9 |
| 20260831034336 | 73 | 176 | 0.0 | 0.0 | 0.00 | 0.00 | 0.00 | 89 | 1018.0 |
| 20260831033313 | 74 | 176 | 0.0 | 0.0 | 0.00 | 0.00 | 0.00 | 89 | 1018.1 |
| 20260831032332 | 74 | 176 | 0.9 | 1.7 | 0.00 | 0.00 | 0.00 | 88 | 1018.2 |
| 20260831031313 | 74 | 176 | 0.0 | 0.9 | 0.00 | 0.00 | 0.00 | 89 | 1018.3 |
| 20260831030333 | 74 | 176 | 0.0 | 0.9 | 0.00 | 0.00 | 0.00 | 88 | 1018.3 |
| 20260831025333 | 74 | 176 | 0.0 | 0.9 | 0.00 | 0.00 | 0.00 | 88 | 1018.2 |
| 20260831024338 | 75 | 176 | 0.0 | 0.9 | 0.00 | 0.00 | 0.00 | 88 | 1018.2 |
| 20260831023333 | 75 | 176 | 0.0 | 0.9 | 0.00 | 0.00 | 0.00 | 88 | 1018.1 |
| 20260831022322 | 75 | 176 | 0.0 | 0.0 | 0.00 | 0.00 | 0.00 | 87 | 1018.3 |
| 20260831021325 | 75 | 176 | 0.0 | 3.5 | 0.00 | 0.00 | 0.00 | 87 | 1018.3 |
| 20260831020329 | 75 | 134 | 1.7 | 4.3 | 0.00 | 0.00 | 0.00 | 87 | 1018.3 |
| 20260831015317 | 75 | 138 | 0.9 | 2.6 | 0.00 | 0.00 | 0.00 | 87 | 1018.3 |
| 20260831014313 | 76 | 221 | 0.0 | 0.9 | 0.00 | 0.00 | 0.00 | 87 | 1018.2 |
| 20260831013316 | 76 | 221 | 0.0 | 0.0 | 0.00 | 0.00 | 0.00 | 87 | 1018.2 |
| 20260831012323 | 76 | 221 | 0.0 | 0.9 | 0.00 | 0.00 | 0.00 | 87 | 1018.2 |
| 20260831011355 | 76 | 221 | 0.0 | 1.7 | 0.00 | 0.00 | 0.00 | 87 | 1018.2 |
| 20260831010313 | 76 | 221 | 0.0 | 0.9 | 0.00 | 0.00 | 0.00 | 86 | 1018.0 |
| 20260831005334 | 76 | 221 | 0.0 | 1.7 | 0.00 | 0.00 | 0.00 | 86 | 1017.6 |
| 20260831004316 | 76 | 221 | 0.0 | 1.7 | 0.00 | 0.00 | 0.00 | 84 | 1017.4 |
| 20260831003337 | 76 | 221 | 0.9 | 1.7 | 0.00 | 0.00 | 0.00 | 83 | 1017.3 |
| 20260831002318 | 77 | 221 | 0.9 | 1.7 | 0.00 | 0.00 | 0.00 | 82 | 1017.2 |
| 20260831001338 | 78 | 142 | 0.9 | 1.7 | 0.00 | 0.00 | 0.00 | 81 | 1017.0 |
| 20260831000355 | 78 | 138 | 0.9 | 4.3 | 0.00 | 0.00 | 0.00 | 79 | 1017.0 |
| 20260830235332 | 79 | 187 | 0.9 | 2.6 | 0.00 | 0.00 | 0.00 | 78 | 1016.8 |
| 20260830234312 | 80 | 165 | 1.7 | 3.5 | 0.00 | 0.00 | 0.00 | 77 | 1016.8 |
| 20260830233333 | 81 | 161 | 0.9 | 2.6 | 0.00 | 0.00 | 0.00 | 75 | 1016.8 |
| 20260830232319 | 82 | 161 | 0.9 | 4.3 | 0.00 | 0.00 | 0.00 | 75 | 1016.8 |
| 20260830231325 | 82 | 164 | 2.6 | 5.2 | 0.00 | 0.00 | 0.00 | 75 | 1016.9 |
| 20260830230332 | 83 | 169 | 1.7 | 4.3 | 0.00 | 0.00 | 0.00 | 74 | 1017.0 |
| 20260830225331 | 84 | 173 | 1.7 | 4.3 | 0.00 | 0.00 | 0.00 | 74 | 1017.1 |
| 20260830224336 | 84 | 185 | 3.5 | 6.1 | 0.00 | 0.00 | 0.00 | 73 | 1017.1 |
| 20260830223315 | 83 | 141 | 3.5 | 7.8 | 0.00 | 0.00 | 0.00 | 74 | 1017.1 |
| 20260830222318 | 84 | 128 | 3.5 | 7.8 | 0.00 | 0.00 | 0.00 | 73 | 1017.1 |
| 20260830221314 | 85 | 144 | 4.3 | 7.0 | 0.00 | 0.00 | 0.00 | 72 | 1017.0 |
| 20260830220321 | 85 | 143 | 3.5 | 6.1 | 0.00 | 0.00 | 0.00 | 71 | 1017.0 |
| 20260830215352 | 85 | 140 | 3.5 | 7.0 | 0.00 | 0.00 | 0.00 | 71 | 1017.0 |
| 20260830214319 | 86 | 140 | 3.5 | 8.7 | 0.00 | 0.00 | 0.00 | 71 | 1017.0 |
| 20260830213332 | 86 | 124 | 4.3 | 7.0 | 0.00 | 0.00 | 0.00 | 70 | 1016.9 |
| 20260830212336 | 85 | 148 | 2.6 | 7.0 | 0.00 | 0.00 | 0.00 | 70 | 1016.9 |
| 20260830211331 | 85 | 169 | 2.6 | 7.8 | 0.00 | 0.00 | 0.00 | 71 | 1016.9 |
| 20260830210330 | 85 | 163 | 0.9 | 7.0 | 0.00 | 0.00 | 0.00 | 72 | 1016.9 |
| 20260830205312 | 85 | 146 | 1.7 | 7.0 | 0.00 | 0.00 | 0.00 | 73 | 1017.0 |
| 20260830204327 | 84 | 351 | 1.7 | 3.5 | 0.00 | 0.00 | 0.00 | 76 | 1017.1 |
| 20260830203318 | 83 | 49 | 1.7 | 5.2 | 0.00 | 0.00 | 0.00 | 76 | 1017.2 |
| 20260830202331 | 84 | 5 | 3.5 | 7.0 | 0.00 | 0.00 | 0.00 | 76 | 1017.5 |
| 20260830201336 | 83 | 5 | 3.5 | 9.6 | 0.00 | 0.00 | 0.00 | 77 | 1017.5 |
| 20260830200329 | 82 | 148 | 0.0 | 2.6 | 0.00 | 0.00 | 0.00 | 76 | 1017.6 |
| 20260830195314 | 81 | 152 | 2.6 | 3.5 | 0.00 | 0.00 | 0.00 | 78 | 1017.5 |
| 20260830194334 | 81 | 157 | 1.7 | 6.1 | 0.00 | 0.00 | 0.00 | 79 | 1017.4 |
| 20260830193311 | 81 | 129 | 2.6 | 6.1 | 0.00 | 0.00 | 0.00 | 76 | 1017.1 |
| 20260830192311 | 83 | 178 | 4.3 | 7.0 | 0.00 | 0.00 | 0.00 | 73 | 1017.8 |
| 20260830191320 | 84 | 153 | 3.5 | 6.1 | 0.00 | 0.00 | 0.00 | 71 | 1017.9 |
| 20260830190311 | 85 | 213 | 4.3 | 7.8 | 0.00 | 0.00 | 0.00 | 67 | 1018.0 |
| 20260830185321 | 87 | 184 | 0.9 | 6.1 | 0.00 | 0.00 | 0.00 | 64 | 1018.1 |
| 20260830184320 | 88 | 233 | 3.5 | 6.1 | 0.00 | 0.00 | 0.00 | 64 | 1018.2 |
| 20260830183337 | 87 | 210 | 2.6 | 5.2 | 0.00 | 0.00 | 0.00 | 64 | 1018.4 |
| 20260830181317 | 86 | 128 | 2.6 | 6.1 | 0.00 | 0.00 | 0.00 | 68 | 1018.6 |
| 20260830180329 | 86 | 273 | 4.3 | 7.0 | 0.00 | 0.00 | 0.00 | 68 | 1018.9 |
| 20260830175324 | 86 | 163 | 4.3 | 7.8 | 0.00 | 0.00 | 0.00 | 68 | 1019.0 |
| 20260830174326 | 86 | 140 | 3.5 | 7.0 | 0.00 | 0.00 | 0.00 | 68 | 1019.0 |
| 20260830173332 | 85 | 173 | 2.6 | 6.1 | 0.00 | 0.00 | 0.00 | 69 | 1018.9 |
| 20260830172337 | 86 | 180 | 3.5 | 10.4 | 0.00 | 0.00 | 0.00 | 67 | 1019.2 |
| 20260830171400 | 86 | 189 | 5.2 | 7.8 | 0.00 | 0.00 | 0.00 | 70 | 1019.3 |
| 20260830170333 | 85 | 156 | 4.3 | 8.7 | 0.00 | 0.00 | 0.00 | 71 | 1019.5 |
| 20260830165327 | 85 | 184 | 3.5 | 8.7 | 0.00 | 0.00 | 0.00 | 72 | 1019.6 |
| 20260830164315 | 85 | 152 | 3.5 | 8.7 | 0.00 | 0.00 | 0.00 | 72 | 1019.6 |